Location: Gollag?dem
(16.8053°N, 80.8024°E)
Time: 23:57:01
(UTC+00:00)

Tiangong - Visible Passes

Search period start: 28 November 2023 00:00
Search period end: 08 December 2023 00:00
Orbit: 374 x 384 km, 41.5° (Epoch: 28 November)

Date Brightness Start Highest point End Pass type
(mag) Time Alt. Az. Time Alt. Az. Time Alt. Az.
04 Dec -0.7 12:45:54 10° NNW 12:48:22 21° NE 12:49:19 18° ENE visible
05 Dec -1.7 13:20:01 10° WNW 13:23:06 58° SW 13:24:09 35° SSE visible
07 Dec 0.4 12:52:59 10° W 12:55:36 24° SW 12:58:11 10° SSE visible
